QPF
0.00 0.01 0.01 0.02 0.05 0.02 0.00 0.00 0.01 0.01 0.02 0.02 0.03 0.04 0.05 0.05 0.06 0.08 0.08 0.07 0.07 0.06 0.08 0.09 0.09 0.09 0.10 0.10 0.10 0.10 0.09 0.09 0.07 0.06 0.05 0.04 0.02 0.01 0.01 0.01 0.01 0.01 0.01
0.00 0.00 0.01 0.02 0.03 0.02 0.01 0.02 0.03 0.04 0.05 0.06 0.08 0.11 0.14 0.14 0.15 0.14 0.10 0.07 0.06 0.06 0.07 0.08 0.09 0.10 0.11 0.11 0.11 0.11 0.12 0.11 0.10 0.09 0.08 0.06 0.03 0.01 0.01 0.01 0.00 0.00 0.00
0.00 0.00 0.01 0.01 0.02 0.03 0.02 0.02 0.05 0.08 0.10 0.10 0.10 0.17 0.18 0.16 0.14 0.12 0.10 0.09 0.07 0.05 0.05 0.06 0.08 0.10 0.11 0.12 0.14 0.17 0.17 0.15 0.12 0.09 0.07 0.05 0.03 0.01 0.00 0.00 0.00 0.00 0.00
0.00 0.00 0.01 0.02 0.03 0.04 0.04 0.04 0.07 0.10 0.10 0.11 0.11 0.15 0.15 0.13 0.13 0.12 0.11 0.08 0.07 0.06 0.05 0.05 0.06 0.08 0.11 0.12 0.13 0.14 0.14 0.11 0.08 0.05 0.03 0.02 0.01 0.01 0.01 0.00 0.00 0.00 0.00
0.00 0.01 0.01 0.01 0.02 0.03 0.04 0.06 0.08 0.10 0.11 0.12 0.12 0.12 0.13 0.11 0.12 0.12 0.09 0.05 0.04 0.03 0.02 0.03 0.04 0.05 0.07 0.08 0.08 0.07 0.06 0.04 0.02 0.01 0.01 0.01 0.01 0.01 0.01 0.00 0.00 0.00 0.00
0.00 0.01 0.01 0.01 0.01 0.01 0.02 0.04 0.07 0.09 0.11 0.12 0.15 0.16 0.16 0.14 0.13 0.10 0.06 0.04 0.03 0.02 0.01 0.01 0.02 0.02 0.02 0.02 0.02 0.02 0.01 0.01 0.01 0.01 0.01 0.01 0.01 0.01 0.01 0.00 0.00 0.00 0.00
0.00 0.01 0.01 0.01 0.01 0.02 0.02 0.03 0.04 0.07 0.09 0.12 0.15 0.16 0.16 0.13 0.12 0.08 0.04 0.03 0.02 0.01 0.01 0.01 0.01 0.01 0.01 0.01 0.01 0.01 0.01 0.01 0.01 0.01 0.01 0.01 0.00 0.00 0.00 0.00 0.00 0.00 0.00
0.01 0.01 0.02 0.02 0.02 0.02 0.02 0.03 0.03 0.05 0.08 0.09 0.12 0.15 0.15 0.13 0.09 0.04 0.02 0.02 0.01 0.01 0.01 0.01 0.00 0.00 0.00 0.00 0.00 0.00 0.00 0.00 0.01 0.01 0.00 0.00 0.00 0.00 0.00 0.00 0.00 0.00 0.00
0.01 0.01 0.02 0.02 0.02 0.02 0.02 0.02 0.03 0.04 0.06 0.07 0.09 0.10 0.09 0.07 0.04 0.03 0.01 0.01 0.01 0.00 0.00 0.00 0.00 0.00 0.00 0.00 0.00 0.00 0.00 0.00 0.00 0.00 0.00 0.00 0.00 0.00 0.00 0.00 0.00 0.00 0.00
0.01 0.02 0.02 0.02 0.02 0.02 0.03 0.03 0.03 0.04 0.04 0.05 0.05 0.05 0.04 0.03 0.02 0.01 0.00 0.00 0.00 0.00 0.00 0.00 0.00 0.00 0.00 0.00 0.00 0.00 0.00 0.00 0.00 0.00 0.00 0.00 0.00 0.00 0.00 0.00 0.00 0.00 0.00
0.01 0.02 0.02 0.02 0.02 0.02 0.03 0.03 0.04 0.03 0.03 0.03 0.03 0.02 0.01 0.01 0.01 0.00 0.00 0.00 0.00 0.00 0.00 0.00 0.00 0.00 0.00 0.00 0.00 0.00 0.00 0.00 0.00 0.00 0.00 0.00 0.00 0.00 0.00 0.00 0.00 0.00 0.00
0.01 0.02 0.02 0.03 0.03 0.03 0.03 0.03 0.03 0.02 0.02 0.01 0.01 0.01 0.00 0.00 0.00 0.00 0.00 0.00 0.00 0.00 0.00 0.00 0.00 0.00 0.00 0.00 0.00 0.00 0.00 0.00 0.00 0.00 0.00 0.00 0.00 0.00 0.00 0.00 0.00 0.00 0.01
0.02 0.02 0.02 0.02 0.03 0.03 0.02 0.02 0.01 0.01 0.01 0.01 0.00 0.00 0.00 0.00 0.00 0.00 0.00 0.00 0.00 0.00 0.00 0.00 0.00 0.00 0.00 0.00 0.00 0.00 0.00 0.00 0.00 0.00 0.00 0.00 0.00 0.00 0.01 0.01 0.01 0.01 0.01
0.03 0.02 0.02 0.02 0.02 0.02 0.01 0.01 0.01 0.01 0.00 0.00 0.00 0.00 0.00 0.00 0.00 0.00 0.00 0.01 0.01 0.01 0.01 0.00 0.00 0.00 0.00 0.00 0.00 0.00 0.00 0.00 0.00 0.00 0.00 0.00 0.01 0.01 0.01 0.01 0.01 0.01 0.02
0.06 0.04 0.03 0.03 0.03 0.02 0.01 0.01 0.01 0.01 0.00 0.00 0.00 0.00 0.00 0.00 0.00 0.00 0.00 0.01 0.01 0.01 0.00 0.00 0.00 0.00 0.00 0.00 0.00 0.00 0.00 0.00 0.00 0.00 0.01 0.01 0.01 0.00 0.00 0.00 0.01 0.02 0.02
0.10 0.08 0.06 0.06 0.05 0.04 0.04 0.03 0.03 0.02 0.02 0.02 0.01 0.01 0.01 0.00 0.00 0.00 0.01 0.01 0.00 0.00 0.00 0.00 0.00 0.00 0.00 0.00 0.00 0.00 0.00 0.00 0.01 0.01 0.01 0.01 0.01 0.00 0.01 0.01 0.01 0.01 0.02
0.17 0.15 0.14 0.13 0.11 0.09 0.08 0.07 0.07 0.06 0.04 0.03 0.02 0.02 0.01 0.01 0.01 0.00 0.01 0.01 0.01 0.01 0.01 0.00 0.00 0.00 0.00 0.00 0.00 0.00 0.00 0.00 0.01 0.01 0.01 0.01 0.01 0.01 0.02 0.01 0.01 0.01 0.01
0.24 0.24 0.23 0.21 0.17 0.13 0.10 0.08 0.07 0.05 0.03 0.02 0.01 0.01 0.01 0.01 0.01 0.01 0.01 0.01 0.01 0.01 0.01 0.01 0.01 0.01 0.00 0.00 0.00 0.00 0.00 0.01 0.01 0.01 0.01 0.01 0.02 0.02 0.00 0.00 0.01 0.01 0.02
0.21 0.20 0.19 0.16 0.13 0.10 0.07 0.06 0.03 0.02 0.01 0.02 0.01 0.01 0.01 0.01 0.01 0.01 0.01 0.01 0.01 0.01 0.01 0.01 0.01 0.01 0.01 0.00 0.00 0.00 0.00 0.00 0.00 0.01 0.01 0.01 0.02 0.01 0.00 0.00 0.01 0.02 0.03
0.12 0.12 0.12 0.11 0.08 0.06 0.05 0.03 0.02 0.02 0.01 0.01 0.01 0.01 0.01 0.01 0.01 0.01 0.01 0.01 0.01 0.01 0.01 0.01 0.01 0.01 0.02 0.00 0.00 0.00 0.00 0.00 0.00 0.00 0.01 0.01 0.01 0.00 0.00 0.00 0.01 0.02 0.02
0.07 0.06 0.06 0.05 0.04 0.03 0.03 0.03 0.03 0.02 0.02 0.02 0.03 0.03 0.02 0.01 0.01 0.02 0.02 0.02 0.02 0.03 0.02 0.02 0.03 0.03 0.02 0.01 0.00 0.00 0.00 0.00 0.00 0.01 0.01 0.02 0.00 0.00 0.00 0.00 0.02 0.02 0.01
0.04 0.05 0.04 0.04 0.03 0.03 0.04 0.04 0.03 0.02 0.02 0.03 0.04 0.04 0.03 0.02 0.01 0.02 0.03 0.03 0.03 0.04 0.04 0.04 0.04 0.04 0.02 0.01 0.00 0.00 0.00 0.00 0.01 0.01 0.02 0.01 0.00 0.00 0.00 0.00 0.01 0.00 0.01
0.02 0.03 0.03 0.02 0.02 0.02 0.03 0.03 0.03 0.02 0.02 0.04 0.04 0.03 0.02 0.02 0.02 0.01 0.03 0.03 0.04 0.04 0.03 0.03 0.04 0.03 0.02 0.01 0.00 0.00 0.00 0.00 0.01 0.01 0.01 0.00 0.00 0.00 0.03 0.02 0.00 0.02 0.07
0.02 0.02 0.02 0.02 0.03 0.03 0.03 0.03 0.03 0.03 0.05 0.05 0.04 0.03 0.02 0.02 0.01 0.01 0.01 0.01 0.02 0.02 0.01 0.02 0.03 0.03 0.02 0.01 0.00 0.00 0.00 0.00 0.01 0.01 0.01 0.01 0.02 0.02 0.04 0.04 0.05 0.08 0.08
0.02 0.02 0.03 0.03 0.02 0.02 0.02 0.02 0.03 0.04 0.05 0.05 0.03 0.02 0.02 0.02 0.02 0.01 0.01 0.00 0.00 0.00 0.00 0.01 0.01 0.01 0.01 0.00 0.00 0.00 0.00 0.00 0.00 0.00 0.01 0.03 0.04 0.04 0.04 0.04 0.05 0.06 0.05
0.03 0.03 0.02 0.02 0.01 0.01 0.01 0.00 0.01 0.02 0.03 0.03 0.02 0.01 0.01 0.01 0.01 0.01 0.02 0.01 0.00 0.00 0.00 0.00 0.00 0.00 0.00 0.00 0.00 0.00 0.00 0.00 0.00 0.01 0.02 0.03 0.02 0.02 0.03 0.03 0.03 0.04 0.05
MSLP
1003.28 1003.55 1003.87 1004.24 1004.67 1005.21 1005.87 1006.66 1007.59 1008.61 1009.68 1010.73 1011.71 1012.57 1013.28 1013.84 1014.27 1014.61 1014.90 1015.17 1015.45 1015.75 1016.08 1016.43 1016.78 1017.13 1017.47 1017.80 1018.13 1018.47 1018.81 1019.15 1019.48 1019.77 1020.00 1020.17 1020.25 1020.27 1020.23 1020.16 1020.09 1020.06 1020.07
1004.04 1004.32 1004.59 1004.86 1005.17 1005.56 1006.09 1006.77 1007.63 1008.63 1009.71 1010.81 1011.86 1012.80 1013.58 1014.20 1014.68 1015.06 1015.38 1015.69 1016.01 1016.35 1016.72 1017.09 1017.46 1017.79 1018.10 1018.37 1018.63 1018.88 1019.14 1019.40 1019.67 1019.92 1020.13 1020.28 1020.36 1020.35 1020.28 1020.16 1020.04 1019.94 1019.88
1005.23 1005.54 1005.77 1005.95 1006.13 1006.36 1006.71 1007.24 1007.97 1008.88 1009.92 1011.01 1012.08 1013.06 1013.90 1014.58 1015.12 1015.56 1015.93 1016.30 1016.68 1017.07 1017.48 1017.89 1018.26 1018.58 1018.84 1019.04 1019.20 1019.35 1019.51 1019.69 1019.90 1020.10 1020.29 1020.44 1020.51 1020.50 1020.42 1020.27 1020.09 1019.92 1019.79
1006.78 1007.13 1007.35 1007.45 1007.49 1007.55 1007.71 1008.06 1008.62 1009.39 1010.33 1011.36 1012.41 1013.40 1014.26 1014.99 1015.59 1016.09 1016.54 1016.96 1017.40 1017.85 1018.31 1018.73 1019.10 1019.40 1019.60 1019.73 1019.81 1019.86 1019.93 1020.04 1020.18 1020.36 1020.53 1020.68 1020.76 1020.76 1020.67 1020.50 1020.28 1020.05 1019.85
1008.53 1008.94 1009.16 1009.20 1009.12 1009.02 1009.00 1009.15 1009.53 1010.15 1010.95 1011.89 1012.88 1013.84 1014.72 1015.47 1016.11 1016.66 1017.16 1017.64 1018.12 1018.61 1019.09 1019.52 1019.89 1020.15 1020.31 1020.37 1020.38 1020.36 1020.36 1020.41 1020.51 1020.66 1020.84 1020.99 1021.09 1021.11 1021.02 1020.84 1020.59 1020.31 1020.04
1010.30 1010.77 1011.00 1011.00 1010.83 1010.61 1010.44 1010.42 1010.63 1011.08 1011.75 1012.58 1013.49 1014.40 1015.25 1016.01 1016.66 1017.23 1017.76 1018.26 1018.76 1019.26 1019.74 1020.16 1020.51 1020.75 1020.87 1020.89 1020.85 1020.79 1020.75 1020.76 1020.85 1020.99 1021.17 1021.34 1021.46 1021.49 1021.41 1021.23 1020.96 1020.64 1020.31
1011.90 1012.42 1012.67 1012.65 1012.44 1012.13 1011.85 1011.70 1011.78 1012.10 1012.65 1013.38 1014.20 1015.05 1015.86 1016.59 1017.22 1017.78 1018.29 1018.78 1019.26 1019.74 1020.19 1020.59 1020.91 1021.13 1021.23 1021.24 1021.18 1021.10 1021.05 1021.06 1021.14 1021.29 1021.47 1021.66 1021.80 1021.85 1021.78 1021.60 1021.33 1020.98 1020.61
1013.16 1013.73 1014.01 1014.00 1013.77 1013.43 1013.10 1012.89 1012.89 1013.12 1013.59 1014.22 1014.97 1015.75 1016.49 1017.17 1017.75 1018.26 1018.72 1019.16 1019.59 1020.02 1020.43 1020.79 1021.09 1021.28 1021.38 1021.40 1021.35 1021.29 1021.25 1021.27 1021.36 1021.51 1021.70 1021.90 1022.04 1022.11 1022.06 1021.89 1021.62 1021.27 1020.89
1014.05 1014.64 1014.94 1014.95 1014.75 1014.44 1014.12 1013.91 1013.89 1014.09 1014.50 1015.08 1015.75 1016.46 1017.13 1017.73 1018.24 1018.67 1019.06 1019.42 1019.77 1020.13 1020.49 1020.82 1021.09 1021.28 1021.40 1021.43 1021.42 1021.39 1021.37 1021.41 1021.50 1021.65 1021.84 1022.04 1022.18 1022.25 1022.22 1022.07 1021.82 1021.49 1021.11
1014.59 1015.17 1015.49 1015.54 1015.40 1015.15 1014.89 1014.74 1014.75 1014.97 1015.36 1015.91 1016.53 1017.17 1017.76 1018.27 1018.69 1019.03 1019.32 1019.60 1019.87 1020.16 1020.47 1020.77 1021.03 1021.23 1021.37 1021.45 1021.47 1021.48 1021.48 1021.53 1021.62 1021.76 1021.93 1022.10 1022.23 1022.30 1022.27 1022.15 1021.92 1021.62 1021.27
1014.89 1015.45 1015.77 1015.87 1015.80 1015.65 1015.50 1015.44 1015.53 1015.79 1016.21 1016.73 1017.31 1017.88 1018.39 1018.81 1019.13 1019.38 1019.58 1019.77 1019.98 1020.22 1020.49 1020.77 1021.04 1021.27 1021.45 1021.56 1021.63 1021.66 1021.68 1021.71 1021.78 1021.88 1022.00 1022.13 1022.23 1022.29 1022.27 1022.16 1021.97 1021.71 1021.39
1015.12 1015.65 1015.97 1016.11 1016.12 1016.08 1016.05 1016.11 1016.29 1016.62 1017.06 1017.58 1018.12 1018.62 1019.04 1019.37 1019.60 1019.77 1019.90 1020.03 1020.20 1020.41 1020.67 1020.95 1021.24 1021.51 1021.72 1021.87 1021.96 1022.00 1022.01 1022.01 1022.03 1022.06 1022.12 1022.19 1022.24 1022.27 1022.24 1022.15 1022.00 1021.77 1021.49
1015.45 1015.92 1016.23 1016.40 1016.50 1016.56 1016.66 1016.83 1017.12 1017.50 1017.97 1018.47 1018.97 1019.40 1019.74 1019.99 1020.15 1020.24 1020.33 1020.42 1020.57 1020.78 1021.05 1021.36 1021.68 1021.97 1022.22 1022.39 1022.48 1022.51 1022.48 1022.44 1022.38 1022.33 1022.31 1022.30 1022.30 1022.28 1022.24 1022.15 1022.01 1021.81 1021.56
1015.96 1016.36 1016.66 1016.86 1017.03 1017.19 1017.39 1017.67 1018.03 1018.47 1018.94 1019.42 1019.86 1020.22 1020.49 1020.66 1020.75 1020.80 1020.86 1020.95 1021.10 1021.33 1021.62 1021.96 1022.31 1022.63 1022.89 1023.07 1023.15 1023.14 1023.06 1022.94 1022.80 1022.66 1022.54 1022.45 1022.38 1022.32 1022.24 1022.15 1022.01 1021.82 1021.57
1016.66 1017.01 1017.29 1017.52 1017.73 1017.97 1018.26 1018.61 1019.03 1019.48 1019.95 1020.38 1020.76 1021.04 1021.24 1021.34 1021.38 1021.41 1021.45 1021.55 1021.72 1021.97 1022.30 1022.67 1023.04 1023.37 1023.63 1023.78 1023.83 1023.78 1023.63 1023.43 1023.20 1022.98 1022.77 1022.60 1022.46 1022.34 1022.23 1022.10 1021.95 1021.74 1021.47
1017.52 1017.81 1018.07 1018.32 1018.57 1018.87 1019.21 1019.61 1020.04 1020.49 1020.92 1021.30 1021.60 1021.81 1021.93 1021.98 1021.98 1021.99 1022.03 1022.14 1022.33 1022.61 1022.96 1023.33 1023.71 1024.03 1024.26 1024.39 1024.39 1024.29 1024.08 1023.81 1023.50 1023.20 1022.92 1022.68 1022.47 1022.30 1022.14 1021.98 1021.78 1021.54 1021.24
1018.41 1018.67 1018.92 1019.17 1019.45 1019.78 1020.15 1020.57 1020.99 1021.41 1021.79 1022.10 1022.33 1022.46 1022.51 1022.51 1022.48 1022.47 1022.51 1022.63 1022.83 1023.11 1023.46 1023.83 1024.18 1024.48 1024.68 1024.76 1024.72 1024.56 1024.31 1023.98 1023.63 1023.27 1022.94 1022.64 1022.38 1022.16 1021.95 1021.74 1021.49 1021.20 1020.85
1019.24 1019.48 1019.72 1019.98 1020.27 1020.61 1020.98 1021.38 1021.78 1022.16 1022.47 1022.71 1022.86 1022.92 1022.92 1022.87 1022.81 1022.79 1022.82 1022.93 1023.13 1023.41 1023.73 1024.07 1024.38 1024.63 1024.79 1024.83 1024.75 1024.56 1024.28 1023.93 1023.56 1023.17 1022.81 1022.48 1022.18 1021.91 1021.65 1021.38 1021.08 1020.73 1020.32
1019.92 1020.15 1020.39 1020.65 1020.94 1021.27 1021.63 1022.00 1022.36 1022.67 1022.92 1023.09 1023.17 1023.18 1023.13 1023.05 1022.97 1022.93 1022.96 1023.05 1023.23 1023.47 1023.76 1024.05 1024.31 1024.52 1024.63 1024.63 1024.53 1024.33 1024.05 1023.70 1023.33 1022.95 1022.57 1022.22 1021.89 1021.58 1021.26 1020.94 1020.58 1020.17 1019.71
1020.42 1020.65 1020.89 1021.14 1021.42 1021.73 1022.06 1022.39 1022.70 1022.95 1023.15 1023.26 1023.29 1023.26 1023.18 1023.08 1022.99 1022.94 1022.95 1023.03 1023.18 1023.38 1023.62 1023.86 1024.07 1024.23 1024.30 1024.29 1024.18 1023.99 1023.72 1023.40 1023.04 1022.67 1022.30 1021.94 1021.58 1021.22 1020.85 1020.47 1020.05 1019.60 1019.10
1020.77 1021.00 1021.23 1021.47 1021.73 1022.01 1022.30 1022.58 1022.84 1023.04 1023.18 1023.25 1023.25 1023.20 1023.11 1023.00 1022.91 1022.86 1022.87 1022.93 1023.06 1023.23 1023.42 1023.62 1023.79 1023.91 1023.97 1023.94 1023.84 1023.67 1023.43 1023.13 1022.80 1022.45 1022.07 1021.69 1021.30 1020.89 1020.47 1020.03 1019.56 1019.06 1018.54
1021.00 1021.23 1021.45 1021.67 1021.89 1022.14 1022.38 1022.62 1022.83 1022.99 1023.09 1023.14 1023.12 1023.06 1022.97 1022.88 1022.81 1022.77 1022.79 1022.85 1022.97 1023.12 1023.29 1023.46 1023.60 1023.71 1023.75 1023.73 1023.65 1023.49 1023.27 1023.00 1022.68 1022.32 1021.93 1021.52 1021.08 1020.62 1020.14 1019.64 1019.12 1018.60 1018.07
1021.18 1021.40 1021.60 1021.79 1021.98 1022.18 1022.38 1022.57 1022.73 1022.86 1022.93 1022.96 1022.94 1022.89 1022.83 1022.77 1022.72 1022.72 1022.76 1022.84 1022.97 1023.12 1023.29 1023.46 1023.60 1023.70 1023.75 1023.73 1023.65 1023.51 1023.30 1023.03 1022.70 1022.31 1021.89 1021.42 1020.92 1020.40 1019.85 1019.30 1018.76 1018.22 1017.69
1021.35 1021.55 1021.71 1021.87 1022.02 1022.17 1022.33 1022.47 1022.60 1022.69 1022.75 1022.77 1022.76 1022.73 1022.69 1022.67 1022.67 1022.71 1022.80 1022.92 1023.08 1023.26 1023.45 1023.63 1023.78 1023.89 1023.95 1023.94 1023.86 1023.71 1023.49 1023.19 1022.82 1022.38 1021.89 1021.36 1020.79 1020.20 1019.60 1019.00 1018.43 1017.89 1017.38
1021.52 1021.68 1021.81 1021.93 1022.04 1022.15 1022.26 1022.37 1022.45 1022.52 1022.56 1022.57 1022.57 1022.56 1022.56 1022.58 1022.63 1022.73 1022.87 1023.04 1023.25 1023.48 1023.71 1023.93 1024.10 1024.23 1024.29 1024.28 1024.19 1024.01 1023.75 1023.40 1022.96 1022.46 1021.89 1021.28 1020.63 1019.98 1019.33 1018.70 1018.11 1017.58 1017.10
1021.67 1021.80 1021.89 1021.97 1022.05 1022.12 1022.20 1022.26 1022.32 1022.35 1022.37 1022.38 1022.38 1022.38 1022.41 1022.46 1022.57 1022.72 1022.91 1023.15 1023.42 1023.71 1023.99 1024.24 1024.45 1024.59 1024.66 1024.64 1024.52 1024.30 1023.98 1023.56 1023.05 1022.47 1021.82 1021.13 1020.42 1019.72 1019.03 1018.39 1017.80 1017.29 1016.84
Thickness
5833 5834 5833 5831 5824 5820 5816 5809 5802 5796 5789 5780 5772 5765 5758 5754 5748 5742 5737 5731 5725 5721 5717 5712 5706 5701 5694 5688 5682 5676 5669 5664 5661 5658 5656 5658 5660 5659 5658 5656 5655 5653 5652
5823 5821 5822 5822 5815 5813 5811 5806 5799 5792 5784 5776 5769 5761 5753 5747 5739 5733 5728 5723 5718 5713 5709 5704 5699 5693 5687 5680 5674 5669 5662 5657 5653 5649 5646 5646 5648 5650 5651 5649 5647 5645 5642
5805 5805 5804 5806 5805 5804 5803 5801 5795 5787 5778 5770 5761 5752 5743 5736 5729 5723 5718 5713 5709 5704 5700 5695 5690 5685 5679 5672 5666 5661 5656 5650 5645 5643 5639 5636 5635 5635 5638 5639 5637 5635 5632
5793 5790 5789 5790 5792 5792 5795 5793 5787 5779 5770 5762 5753 5744 5734 5726 5720 5714 5708 5702 5697 5693 5688 5684 5680 5675 5669 5664 5658 5653 5649 5645 5639 5634 5631 5628 5625 5620 5621 5625 5626 5625 5622
5776 5772 5773 5775 5778 5780 5781 5779 5775 5766 5759 5752 5744 5735 5727 5719 5711 5704 5696 5690 5684 5680 5676 5672 5668 5663 5658 5653 5648 5643 5639 5635 5630 5626 5623 5619 5616 5612 5607 5607 5610 5610 5610
5758 5755 5756 5758 5760 5763 5763 5762 5757 5749 5744 5738 5731 5724 5716 5708 5699 5691 5684 5677 5671 5667 5663 5659 5655 5651 5646 5641 5637 5632 5628 5624 5620 5616 5613 5608 5604 5601 5598 5595 5595 5594 5594
5740 5737 5736 5737 5738 5739 5741 5740 5736 5730 5726 5722 5716 5710 5702 5695 5687 5679 5672 5666 5660 5655 5650 5646 5642 5638 5633 5629 5625 5620 5616 5612 5608 5604 5600 5596 5592 5589 5586 5583 5581 5579 5578
5723 5720 5718 5718 5718 5719 5720 5720 5716 5711 5708 5704 5698 5693 5688 5681 5673 5667 5660 5654 5647 5641 5637 5633 5629 5625 5621 5617 5612 5608 5604 5600 5595 5592 5587 5583 5579 5576 5572 5569 5565 5563 5562
5705 5703 5701 5701 5700 5701 5701 5701 5699 5695 5690 5686 5682 5676 5670 5665 5658 5652 5646 5640 5634 5629 5624 5620 5616 5612 5608 5604 5599 5595 5591 5586 5582 5578 5574 5569 5565 5561 5558 5553 5549 5545 5544
5689 5686 5685 5684 5685 5685 5685 5684 5682 5679 5675 5671 5667 5660 5655 5649 5644 5638 5632 5626 5621 5616 5612 5607 5602 5598 5594 5590 5585 5582 5577 5573 5568 5564 5559 5555 5550 5545 5540 5536 5532 5528 5526
5674 5672 5671 5671 5671 5670 5670 5668 5666 5663 5659 5655 5650 5645 5639 5634 5629 5623 5617 5611 5607 5602 5597 5593 5588 5584 5579 5575 5570 5567 5563 5558 5553 5548 5544 5538 5534 5529 5523 5519 5515 5512 5508
5662 5660 5659 5658 5657 5656 5655 5653 5650 5647 5643 5639 5634 5629 5623 5618 5613 5607 5601 5596 5591 5586 5582 5578 5573 5569 5564 5559 5555 5550 5546 5541 5536 5531 5526 5522 5518 5512 5507 5503 5499 5494 5490
5649 5647 5646 5645 5644 5642 5640 5638 5635 5631 5627 5622 5617 5611 5606 5600 5595 5589 5584 5579 5575 5570 5566 5562 5557 5552 5548 5542 5537 5532 5528 5524 5519 5515 5510 5507 5502 5498 5494 5488 5484 5480 5477
5635 5633 5632 5630 5629 5627 5625 5621 5618 5614 5610 5604 5598 5593 5587 5582 5577 5572 5567 5563 5558 5554 5550 5545 5540 5535 5529 5522 5516 5512 5509 5506 5503 5499 5496 5493 5489 5485 5480 5475 5471 5467 5462
5620 5618 5616 5613 5611 5609 5606 5602 5598 5595 5590 5584 5578 5572 5568 5563 5559 5554 5550 5546 5542 5538 5533 5528 5523 5517 5510 5501 5495 5491 5491 5488 5487 5485 5483 5480 5477 5473 5468 5464 5459 5455 5451
5605 5602 5598 5595 5592 5589 5586 5582 5578 5574 5570 5565 5559 5554 5550 5545 5541 5537 5533 5528 5524 5519 5515 5510 5505 5498 5491 5482 5477 5473 5472 5472 5472 5471 5469 5467 5466 5462 5458 5453 5449 5445 5442
5589 5585 5581 5578 5573 5570 5567 5563 5560 5556 5551 5546 5542 5538 5534 5530 5526 5523 5516 5511 5506 5502 5497 5492 5486 5479 5471 5466 5462 5459 5457 5458 5459 5458 5456 5455 5454 5451 5447 5444 5442 5440 5437
5577 5571 5567 5563 5558 5554 5551 5548 5545 5541 5536 5532 5528 5524 5520 5516 5511 5506 5500 5495 5490 5485 5481 5476 5471 5464 5456 5451 5448 5445 5446 5448 5448 5447 5445 5444 5442 5439 5435 5434 5435 5435 5435
5564 5559 5554 5550 5545 5541 5537 5535 5531 5527 5523 5518 5514 5510 5506 5501 5496 5490 5485 5480 5475 5471 5466 5462 5457 5451 5444 5438 5434 5432 5433 5436 5435 5435 5435 5434 5433 5429 5427 5428 5430 5433 5434
5551 5547 5542 5538 5534 5529 5526 5522 5518 5514 5510 5505 5500 5496 5491 5486 5481 5475 5470 5466 5461 5457 5453 5448 5444 5439 5434 5427 5422 5419 5421 5423 5423 5424 5426 5426 5425 5423 5423 5424 5427 5430 5433
5539 5535 5531 5527 5522 5518 5514 5510 5506 5502 5498 5493 5488 5482 5477 5473 5467 5462 5457 5452 5448 5444 5440 5436 5432 5428 5423 5417 5412 5409 5409 5410 5411 5415 5418 5420 5420 5421 5422 5424 5427 5430 5431
5529 5525 5520 5516 5512 5508 5504 5500 5495 5491 5487 5481 5475 5470 5466 5462 5456 5450 5445 5441 5437 5434 5430 5425 5421 5417 5412 5408 5404 5401 5400 5400 5403 5407 5411 5415 5417 5420 5424 5427 5430 5431 5431
5521 5516 5512 5507 5503 5499 5495 5491 5485 5481 5475 5470 5464 5460 5455 5450 5446 5441 5437 5433 5428 5425 5421 5417 5412 5408 5404 5400 5396 5395 5395 5396 5399 5403 5408 5412 5417 5421 5426 5431 5432 5433 5434
5513 5509 5505 5500 5495 5491 5486 5481 5477 5471 5466 5460 5456 5452 5447 5443 5438 5434 5430 5426 5420 5415 5411 5407 5403 5400 5397 5392 5389 5389 5392 5394 5398 5401 5406 5412 5419 5424 5428 5431 5434 5435 5436
5507 5502 5498 5494 5489 5484 5480 5475 5470 5464 5459 5453 5449 5445 5441 5437 5433 5428 5420 5416 5407 5401 5398 5395 5392 5390 5388 5382 5380 5382 5386 5389 5393 5397 5405 5414 5420 5426 5430 5433 5435 5437 5438
5501 5496 5493 5488 5484 5479 5474 5469 5463 5458 5452 5448 5444 5441 5437 5433 5429 5424 5416 5406 5401 5394 5389 5385 5382 5382 5379 5379 5381 5383 5386 5391 5395 5399 5407 5413 5420 5424 5428 5432 5436 5438 5440